SITE: BDASw,YEAR: 2006,,,,,,
2006date,time,pzhd (cm),gw temp (C),DWT (cm),WT elev (m),,
01/01/06,0:00,148.8,13.7,210.3,1371.162,,Depth to water table:
01/01/06,0:30,148.8,13.7,210.3,1371.162,,DWT = SCL - CH - h (all values in cm)
01/01/06,1:00,148.9,13.6,210.2,1371.163,,where
01/01/06,1:30,149.0,13.7,210.1,1371.164,,SCL = sensor cable length = 490.5 cm
01/01/06,2:00,148.3,13.7,210.8,1371.157,,CH = casing height of well = 131.5 cm
01/01/06,2:30,148.1,13.7,211.0,1371.155,,h = height of water above sensor (from pzhd column)
01/01/06,3:00,148.5,13.6,210.6,1371.159,,
01/01/06,3:30,148.5,13.6,210.6,1371.159,,WT elevation:
01/01/06,4:00,148.9,13.7,210.2,1371.163,,Sensor elev = 1369.674 m asl
01/01/06,4:30,148.9,13.6,210.2,1371.163,,WT elev = sensor elev + h (from pzhd column)
01/01/06,5:00,148.8,13.6,210.3,1371.162,,
01/01/06,5:30,148.9,13.6,210.2,1371.163,,
01/01/06,6:00,148.3,13.6,210.8,1371.157,,
01/01/06,6:30,148.5,13.6,210.6,1371.159,,Dates with missing data (# 0.5 hr data points): none.
01/01/06,7:00,147.7,13.6,211.4,1371.151,,
01/01/06,7:30,147.8,13.6,211.3,1371.152,,
01/01/06,8:00,147.8,13.7,211.3,1371.152,,
01/01/06,8:30,148.1,13.6,211.0,1371.155,,"Dates w/missing T data: 1/18, 4/27, 5/24, 6/13, 6/24,"
01/01/06,9:00,148.4,13.6,210.7,1371.158,,"9/2, 9/12, 11/30, 12/17."
01/01/06,9:30,146.9,13.7,212.2,1371.143,,
01/01/06,10:00,146.9,13.7,212.2,1371.143,,
01/01/06,10:30,147.5,13.6,211.6,1371.149,,
01/01/06,11:00,147.2,13.7,211.9,1371.146,,
01/01/06,11:30,147.7,13.6,211.4,1371.151,,
01/01/06,12:00,148.4,13.7,210.7,1371.158,,
01/01/06,12:30,148.3,13.6,210.8,1371.157,,
01/01/06,13:00,147.5,13.7,211.6,1371.149,,
01/01/06,13:30,147.8,13.7,211.3,1371.152,,
01/01/06,14:00,147.6,13.6,211.5,1371.150,,
01/01/06,14:30,147.6,13.7,211.5,1371.150,,
01/01/06,15:00,147.6,13.6,211.5,1371.150,,
01/01/06,15:30,147.4,13.6,211.7,1371.148,,
01/01/06,16:00,147.1,13.6,212.0,1371.145,,
01/01/06,16:30,147.4,13.6,211.7,1371.148,,
01/01/06,17:00,147.1,13.6,212.0,1371.145,,
01/01/06,17:30,146.7,13.7,212.4,1371.141,,
01/01/06,18:00,146.7,13.6,212.4,1371.141,,
01/01/06,18:30,146.8,13.6,212.3,1371.142,,
01/01/06,19:00,147.3,13.6,211.8,1371.147,,
01/01/06,19:30,146.6,13.6,212.5,1371.140,,
01/01/06,20:00,146.6,13.6,212.5,1371.140,,
01/01/06,20:30,146.4,13.6,212.7,1371.138,,
01/01/06,21:00,146.6,13.6,212.5,1371.140,,
01/01/06,21:30,146.2,13.6,212.9,1371.136,,
01/01/06,22:00,146.6,13.6,212.5,1371.140,,
01/01/06,22:30,146.0,13.6,213.1,1371.134,,
01/01/06,23:00,146.3,13.6,212.8,1371.137,,
01/01/06,23:30,146.3,13.6,212.8,1371.137,,
01/02/06,0:00,146.5,13.6,212.6,1371.139,,
01/02/06,0:30,146.3,13.6,212.8,1371.137,,
01/02/06,1:00,145.8,13.6,213.3,1371.132,,
01/02/06,1:30,146.1,13.6,213.0,1371.135,,
01/02/06,2:00,146.1,13.6,213.0,1371.135,,
01/02/06,2:30,145.9,13.6,213.2,1371.133,,
01/02/06,3:00,145.2,13.6,213.9,1371.126,,
01/02/06,3:30,145.6,13.6,213.5,1371.130,,
01/02/06,4:00,146.0,13.6,213.1,1371.134,,
01/02/06,4:30,145.4,13.6,213.7,1371.128,,
01/02/06,5:00,145.3,13.6,213.8,1371.127,,
01/02/06,5:30,145.1,13.6,214.0,1371.125,,
01/02/06,6:00,144.9,13.6,214.2,1371.123,,
01/02/06,6:30,144.2,13.6,214.9,1371.116,,
01/02/06,7:00,145.3,13.6,213.8,1371.127,,
01/02/06,7:30,144.8,13.6,214.3,1371.122,,
01/02/06,8:00,144.3,13.6,214.8,1371.117,,
01/02/06,8:30,144.1,13.6,215.0,1371.115,,
01/02/06,9:00,144.6,13.6,214.5,1371.120,,
01/02/06,9:30,145.0,13.6,214.1,1371.124,,
01/02/06,10:00,145.5,13.6,213.6,1371.129,,
01/02/06,10:30,146.0,13.6,213.1,1371.134,,
01/02/06,11:00,145.7,13.6,213.4,1371.131,,
01/02/06,11:30,146.5,13.6,212.6,1371.139,,
01/02/06,12:00,146.7,13.6,212.4,1371.141,,
01/02/06,12:30,147.2,13.6,211.9,1371.146,,
01/02/06,13:00,146.9,13.6,212.2,1371.143,,
01/02/06,13:30,147.0,13.6,212.1,1371.144,,
01/02/06,14:00,147.1,13.6,212.0,1371.145,,
01/02/06,14:30,147.1,13.6,212.0,1371.145,,
01/02/06,15:00,146.7,13.6,212.4,1371.141,,
01/02/06,15:30,147.1,13.6,212.0,1371.145,,
01/02/06,16:00,147.0,13.6,212.1,1371.144,,
01/02/06,16:30,147.1,13.6,212.0,1371.145,,
01/02/06,17:00,147.3,13.6,211.8,1371.147,,
01/02/06,17:30,147.2,13.6,211.9,1371.146,,
01/02/06,18:00,147.3,13.6,211.8,1371.147,,
01/02/06,18:30,146.9,13.6,212.2,1371.143,,
01/02/06,19:00,147.1,13.6,212.0,1371.145,,
01/02/06,19:30,146.7,13.6,212.4,1371.141,,
01/02/06,20:00,146.9,13.6,212.2,1371.143,,
01/02/06,20:30,147.2,13.6,211.9,1371.146,,
01/02/06,21:00,147.1,13.6,212.0,1371.145,,
01/02/06,21:30,146.9,13.6,212.2,1371.143,,
01/02/06,22:00,146.9,13.6,212.2,1371.143,,
01/02/06,22:30,147.2,13.6,211.9,1371.146,,
01/02/06,23:00,146.6,13.6,212.5,1371.140,,
01/02/06,23:30,147.1,13.6,212.0,1371.145,,
01/03/06,0:00,146.9,13.6,212.2,1371.143,,
01/03/06,0:30,146.9,13.6,212.2,1371.143,,
01/03/06,1:00,146.8,13.6,212.3,1371.142,,
01/03/06,1:30,146.9,13.6,212.2,1371.143,,
01/03/06,2:00,146.2,13.6,212.9,1371.136,,
01/03/06,2:30,147.0,13.6,212.1,1371.144,,
01/03/06,3:00,147.1,13.6,212.0,1371.145,,
01/03/06,3:30,146.6,13.6,212.5,1371.140,,
01/03/06,4:00,146.6,13.6,212.5,1371.140,,
01/03/06,4:30,146.6,13.6,212.5,1371.140,,
01/03/06,5:00,146.3,13.6,212.8,1371.137,,
01/03/06,5:30,146.4,13.6,212.7,1371.138,,
01/03/06,6:00,146.3,13.6,212.8,1371.137,,
01/03/06,6:30,146.6,13.6,212.5,1371.140,,
01/03/06,7:00,146.4,13.6,212.7,1371.138,,
01/03/06,7:30,145.4,13.6,213.7,1371.128,,
01/03/06,8:00,145.6,13.6,213.5,1371.130,,
01/03/06,8:30,146.1,13.6,213.0,1371.135,,
01/03/06,9:00,145.9,13.6,213.2,1371.133,,
01/03/06,9:30,146.0,13.6,213.1,1371.134,,
01/03/06,10:00,145.8,13.6,213.3,1371.132,,
01/03/06,10:30,146.7,13.6,212.4,1371.141,,
01/03/06,11:00,147.2,13.6,211.9,1371.146,,
01/03/06,11:30,147.4,13.6,211.7,1371.148,,
01/03/06,12:00,147.7,13.6,211.4,1371.151,,
01/03/06,12:30,147.9,13.6,211.2,1371.153,,
01/03/06,13:00,147.4,13.6,211.7,1371.148,,
01/03/06,13:30,147.6,13.6,211.5,1371.150,,
01/03/06,14:00,147.1,13.6,212.0,1371.145,,
01/03/06,14:30,147.1,13.6,212.0,1371.145,,
01/03/06,15:00,146.6,13.6,212.5,1371.140,,
01/03/06,15:30,146.6,13.6,212.5,1371.140,,
01/03/06,16:00,146.5,13.6,212.6,1371.139,,
01/03/06,16:30,146.1,13.5,213.0,1371.135,,
01/03/06,17:00,146.2,13.6,212.9,1371.136,,
01/03/06,17:30,146.6,13.6,212.5,1371.140,,
01/03/06,18:00,146.7,13.6,212.4,1371.141,,
01/03/06,18:30,145.9,13.6,213.2,1371.133,,
01/03/06,19:00,146.3,13.6,212.8,1371.137,,
01/03/06,19:30,146.1,13.6,213.0,1371.135,,
01/03/06,20:00,145.9,13.6,213.2,1371.133,,
01/03/06,20:30,145.7,13.6,213.4,1371.131,,
01/03/06,21:00,145.5,13.6,213.6,1371.129,,
01/03/06,21:30,145.6,13.6,213.5,1371.130,,
01/03/06,22:00,145.1,13.6,214.0,1371.125,,
01/03/06,22:30,145.4,13.6,213.7,1371.128,,
01/03/06,23:00,145.5,13.5,213.6,1371.129,,
01/03/06,23:30,145.4,13.6,213.7,1371.128,,
01/04/06,0:00,145.6,13.5,213.5,1371.130,,
01/04/06,0:30,145.2,13.6,213.9,1371.126,,
01/04/06,1:00,145.1,13.5,214.0,1371.125,,
01/04/06,1:30,145.4,13.5,213.7,1371.128,,
01/04/06,2:00,145.0,13.5,214.1,1371.124,,
01/04/06,2:30,144.9,13.5,214.2,1371.123,,
01/04/06,3:00,144.9,13.6,214.2,1371.123,,
01/04/06,3:30,144.8,13.5,214.3,1371.122,,
01/04/06,4:00,145.4,13.5,213.7,1371.128,,
01/04/06,4:30,144.6,13.5,214.5,1371.120,,
01/04/06,5:00,145.2,13.5,213.9,1371.126,,
01/04/06,5:30,144.7,13.5,214.4,1371.121,,
01/04/06,6:00,144.7,13.5,214.4,1371.121,,
01/04/06,6:30,144.5,13.5,214.6,1371.119,,
01/04/06,7:00,143.7,13.5,215.4,1371.111,,
01/04/06,7:30,144.3,13.5,214.8,1371.117,,
01/04/06,8:00,143.5,13.5,215.6,1371.109,,
01/04/06,8:30,143.7,13.5,215.4,1371.111,,
01/04/06,9:00,143.5,13.5,215.6,1371.109,,
01/04/06,9:30,144.0,13.5,215.1,1371.114,,
01/04/06,10:00,146.2,13.5,212.9,1371.136,,
01/04/06,10:30,145.8,13.5,213.3,1371.132,,
01/04/06,11:00,146.0,13.5,213.1,1371.134,,
01/04/06,11:30,146.3,13.5,212.8,1371.137,,
01/04/06,12:00,146.3,13.5,212.8,1371.137,,
01/04/06,12:30,147.5,13.5,211.6,1371.149,,
01/04/06,13:00,146.7,13.5,212.4,1371.141,,
01/04/06,13:30,147.4,13.5,211.7,1371.148,,
01/04/06,14:00,147.6,13.5,211.5,1371.150,,
01/04/06,14:30,147.4,13.5,211.7,1371.148,,
01/04/06,15:00,147.2,13.5,211.9,1371.146,,
01/04/06,15:30,146.9,13.5,212.2,1371.143,,
01/04/06,16:00,146.8,13.5,212.3,1371.142,,
01/04/06,16:30,146.3,13.5,212.8,1371.137,,
01/04/06,17:00,147.0,13.5,212.1,1371.144,,
01/04/06,17:30,147.1,13.5,212.0,1371.145,,
01/04/06,18:00,145.8,13.5,213.3,1371.132,,
01/04/06,18:30,146.4,13.5,212.7,1371.138,,
01/04/06,19:00,145.8,13.5,213.3,1371.132,,
01/04/06,19:30,145.9,13.5,213.2,1371.133,,
01/04/06,20:00,146.3,13.5,212.8,1371.137,,
01/04/06,20:30,145.9,13.5,213.2,1371.133,,
01/04/06,21:00,145.6,13.5,213.5,1371.130,,
01/04/06,21:30,145.1,13.5,214.0,1371.125,,
01/04/06,22:00,145.1,13.5,214.0,1371.125,,
01/04/06,22:30,146.2,13.5,212.9,1371.136,,
01/04/06,23:00,145.1,13.5,214.0,1371.125,,
01/04/06,23:30,144.7,13.5,214.4,1371.121,,
01/05/06,0:00,144.9,13.5,214.2,1371.123,,
01/05/06,0:30,145.9,13.5,213.2,1371.133,,
01/05/06,1:00,145.6,13.5,213.5,1371.130,,
01/05/06,1:30,145.2,13.5,213.9,1371.126,,
01/05/06,2:00,145.2,13.5,213.9,1371.126,,
01/05/06,2:30,144.3,13.5,214.8,1371.117,,
01/05/06,3:00,145.4,13.5,213.7,1371.128,,
01/05/06,3:30,145.4,13.5,213.7,1371.128,,
01/05/06,4:00,145.8,13.5,213.3,1371.132,,
01/05/06,4:30,145.4,13.5,213.7,1371.128,,
01/05/06,5:00,144.9,13.5,214.2,1371.123,,
01/05/06,5:30,145.0,13.5,214.1,1371.124,,
01/05/06,6:00,145.2,13.5,213.9,1371.126,,
01/05/06,6:30,145.2,13.5,213.9,1371.126,,
01/05/06,7:00,144.9,13.5,214.2,1371.123,,
01/05/06,7:30,144.4,13.5,214.7,1371.118,,
01/05/06,8:00,144.1,13.5,215.0,1371.115,,
01/05/06,8:30,144.1,13.5,215.0,1371.115,,
01/05/06,9:00,144.6,13.5,214.5,1371.120,,
01/05/06,9:30,144.5,13.5,214.6,1371.119,,
01/05/06,10:00,145.5,13.5,213.6,1371.129,,
01/05/06,10:30,145.5,13.5,213.6,1371.129,,
01/05/06,11:00,145.3,13.5,213.8,1371.127,,
01/05/06,11:30,145.9,13.5,213.2,1371.133,,
01/05/06,12:00,145.8,13.5,213.3,1371.132,,
01/05/06,12:30,145.9,13.5,213.2,1371.133,,
01/05/06,13:00,145.8,13.5,213.3,1371.132,,
01/05/06,13:30,146.0,13.5,213.1,1371.134,,
01/05/06,14:00,146.3,13.5,212.8,1371.137,,
01/05/06,14:30,146.4,13.5,212.7,1371.138,,
01/05/06,15:00,146.8,13.5,212.3,1371.142,,
01/05/06,15:30,146.1,13.5,213.0,1371.135,,
01/05/06,16:00,146.7,13.5,212.4,1371.141,,
01/05/06,16:30,146.4,13.5,212.7,1371.138,,
01/05/06,17:00,146.5,13.5,212.6,1371.139,,
01/05/06,17:30,146.2,13.5,212.9,1371.136,,
01/05/06,18:00,146.6,13.5,212.5,1371.140,,
01/05/06,18:30,146.1,13.5,213.0,1371.135,,
01/05/06,19:00,146.0,13.5,213.1,1371.134,,
01/05/06,19:30,146.1,13.5,213.0,1371.135,,
01/05/06,20:00,145.7,13.5,213.4,1371.131,,
01/05/06,20:30,145.1,13.5,214.0,1371.125,,
01/05/06,21:00,145.8,13.5,213.3,1371.132,,
01/05/06,21:30,145.4,13.5,213.7,1371.128,,
01/05/06,22:00,144.8,13.5,214.3,1371.122,,
01/05/06,22:30,145.4,13.5,213.7,1371.128,,
01/05/06,23:00,144.9,13.5,214.2,1371.123,,
01/05/06,23:30,144.8,13.5,214.3,1371.122,,
01/06/06,0:00,145.3,13.5,213.8,1371.127,,
01/06/06,0:30,144.6,13.5,214.5,1371.120,,
01/06/06,1:00,144.8,13.5,214.3,1371.122,,
01/06/06,1:30,144.2,13.5,214.9,1371.116,,
01/06/06,2:00,144.4,13.5,214.7,1371.118,,
01/06/06,2:30,145.0,13.5,214.1,1371.124,,
01/06/06,3:00,143.8,13.5,215.3,1371.112,,
01/06/06,3:30,144.0,13.5,215.1,1371.114,,
01/06/06,4:00,143.9,13.5,215.2,1371.113,,
01/06/06,4:30,144.3,13.5,214.8,1371.117,,
01/06/06,5:00,143.9,13.5,215.2,1371.113,,
01/06/06,5:30,143.9,13.5,215.2,1371.113,,
01/06/06,6:00,143.5,13.5,215.6,1371.109,,
01/06/06,6:30,144.0,13.5,215.1,1371.114,,
01/06/06,7:00,143.7,13.5,215.4,1371.111,,
01/06/06,7:30,143.8,13.5,215.3,1371.112,,
01/06/06,8:00,144.3,13.5,214.8,1371.117,,
01/06/06,8:30,144.7,13.5,214.4,1371.121,,
01/06/06,9:00,144.0,13.5,215.1,1371.114,,
01/06/06,9:30,144.8,13.4,214.3,1371.122,,
01/06/06,10:00,146.3,13.5,212.8,1371.137,,
01/06/06,10:30,146.4,13.5,212.7,1371.138,,
01/06/06,11:00,147.4,13.5,211.7,1371.148,,
01/06/06,11:30,147.5,13.5,211.6,1371.149,,
01/06/06,12:00,147.3,13.5,211.8,1371.147,,
01/06/06,12:30,148.0,13.5,211.1,1371.154,,
01/06/06,13:00,148.0,13.5,211.1,1371.154,,
01/06/06,13:30,148.2,13.5,210.9,1371.156,,
01/06/06,14:00,148.2,13.5,210.9,1371.156,,
01/06/06,14:30,147.8,13.5,211.3,1371.152,,
01/06/06,15:00,148.2,13.5,210.9,1371.156,,
01/06/06,15:30,148.4,13.5,210.7,1371.158,,
01/06/06,16:00,148.1,13.5,211.0,1371.155,,
01/06/06,16:30,148.6,13.5,210.5,1371.160,,
01/06/06,17:00,148.4,13.5,210.7,1371.158,,
01/06/06,17:30,148.1,13.5,211.0,1371.155,,
01/06/06,18:00,147.2,13.5,211.9,1371.146,,
01/06/06,18:30,148.0,13.5,211.1,1371.154,,
01/06/06,19:00,148.4,13.5,210.7,1371.158,,
01/06/06,19:30,148.0,13.5,211.1,1371.154,,
01/06/06,20:00,148.0,13.4,211.1,1371.154,,
01/06/06,20:30,147.3,13.5,211.8,1371.147,,
01/06/06,21:00,146.9,13.5,212.2,1371.143,,
01/06/06,21:30,146.6,13.5,212.5,1371.140,,
01/06/06,22:00,146.7,13.5,212.4,1371.141,,
01/06/06,22:30,147.0,13.5,212.1,1371.144,,
01/06/06,23:00,146.5,13.5,212.6,1371.139,,
01/06/06,23:30,146.2,13.5,212.9,1371.136,,
01/07/06,0:00,146.1,13.5,213.0,1371.135,,
01/07/06,0:30,146.1,13.5,213.0,1371.135,,
01/07/06,1:00,146.4,13.5,212.7,1371.138,,
01/07/06,1:30,146.2,13.5,212.9,1371.136,,
01/07/06,2:00,146.7,13.5,212.4,1371.141,,
01/07/06,2:30,146.4,13.5,212.7,1371.138,,
01/07/06,3:00,146.6,13.5,212.5,1371.140,,
01/07/06,3:30,146.7,13.5,212.4,1371.141,,
01/07/06,4:00,146.8,13.5,212.3,1371.142,,
01/07/06,4:30,146.1,13.5,213.0,1371.135,,
01/07/06,5:00,146.0,13.5,213.1,1371.134,,
01/07/06,5:30,146.6,13.5,212.5,1371.140,,
01/07/06,6:00,145.4,13.5,213.7,1371.128,,
01/07/06,6:30,145.8,13.5,213.3,1371.132,,
01/07/06,7:00,145.9,13.5,213.2,1371.133,,
01/07/06,7:30,145.9,13.5,213.2,1371.133,,
01/07/06,8:00,146.1,13.5,213.0,1371.135,,
01/07/06,8:30,145.7,13.5,213.4,1371.131,,
01/07/06,9:00,145.2,13.5,213.9,1371.126,,
01/07/06,9:30,145.3,13.5,213.8,1371.127,,
01/07/06,10:00,147.6,13.5,211.5,1371.150,,
01/07/06,10:30,148.0,13.5,211.1,1371.154,,
01/07/06,11:00,149.4,13.5,209.7,1371.168,,
01/07/06,11:30,149.2,13.5,209.9,1371.166,,
01/07/06,12:00,150.2,13.5,208.9,1371.176,,
01/07/06,12:30,150.4,13.5,208.7,1371.178,,
01/07/06,13:00,149.6,13.5,209.5,1371.170,,
01/07/06,13:30,149.9,13.5,209.2,1371.173,,
01/07/06,14:00,150.0,13.5,209.1,1371.174,,
01/07/06,14:30,149.5,13.5,209.6,1371.169,,
01/07/06,15:00,149.9,13.5,209.2,1371.173,,
01/07/06,15:30,149.9,13.5,209.2,1371.173,,
01/07/06,16:00,149.8,13.5,209.3,1371.172,,
01/07/06,16:30,149.9,13.5,209.2,1371.173,,
01/07/06,17:00,150.2,13.5,208.9,1371.176,,
01/07/06,17:30,150.2,13.5,208.9,1371.176,,
01/07/06,18:00,150.0,13.5,209.1,1371.174,,
01/07/06,18:30,150.4,13.5,208.7,1371.178,,
01/07/06,19:00,149.5,13.5,209.6,1371.169,,
01/07/06,19:30,149.2,13.5,209.9,1371.166,,
01/07/06,20:00,149.8,13.5,209.3,1371.172,,
01/07/06,20:30,149.3,13.5,209.8,1371.167,,
01/07/06,21:00,148.8,13.5,210.3,1371.162,,
01/07/06,21:30,149.0,13.5,210.1,1371.164,,
01/07/06,22:00,148.6,13.5,210.5,1371.160,,
01/07/06,22:30,149.1,13.5,210.0,1371.165,,
01/07/06,23:00,149.1,13.5,210.0,1371.165,,
01/07/06,23:30,149.4,13.5,209.7,1371.168,,
01/08/06,0:00,148.8,13.5,210.3,1371.162,,
01/08/06,0:30,149.1,13.5,210.0,1371.165,,
01/08/06,1:00,149.5,13.5,209.6,1371.169,,
01/08/06,1:30,149.0,13.5,210.1,1371.164,,
01/08/06,2:00,148.7,13.5,210.4,1371.161,,
01/08/06,2:30,148.7,13.5,210.4,1371.161,,
01/08/06,3:00,148.6,13.5,210.5,1371.160,,
01/08/06,3:30,149.3,13.5,209.8,1371.167,,
01/08/06,4:00,149.3,13.5,209.8,1371.167,,
01/08/06,4:30,149.0,13.5,210.1,1371.164,,
01/08/06,5:00,148.3,13.5,210.8,1371.157,,
01/08/06,5:30,149.4,13.5,209.7,1371.168,,
01/08/06,6:00,149.1,13.5,210.0,1371.165,,
01/08/06,6:30,147.8,13.5,211.3,1371.152,,
01/08/06,7:00,147.9,13.5,211.2,1371.153,,
01/08/06,7:30,147.7,13.5,211.4,1371.151,,
01/08/06,8:00,147.7,13.5,211.4,1371.151,,
01/08/06,8:30,147.3,13.5,211.8,1371.147,,
01/08/06,9:00,147.5,13.5,211.6,1371.149,,
01/08/06,9:30,146.6,13.5,212.5,1371.140,,
01/08/06,10:00,147.9,13.5,211.2,1371.153,,
01/08/06,10:30,148.2,13.5,210.9,1371.156,,
01/08/06,11:00,148.6,13.5,210.5,1371.160,,
01/08/06,11:30,148.3,13.5,210.8,1371.157,,
01/08/06,12:00,148.1,13.5,211.0,1371.155,,
01/08/06,12:30,148.7,13.5,210.4,1371.161,,
01/08/06,13:00,148.4,13.5,210.7,1371.158,,
01/08/06,13:30,148.4,13.5,210.7,1371.158,,
01/08/06,14:00,148.6,13.5,210.5,1371.160,,
01/08/06,14:30,148.5,13.5,210.6,1371.159,,
01/08/06,15:00,148.8,13.5,210.3,1371.162,,
01/08/06,15:30,148.6,13.5,210.5,1371.160,,
01/08/06,16:00,148.5,13.5,210.6,1371.159,,
01/08/06,16:30,148.2,13.5,210.9,1371.156,,
01/08/06,17:00,148.5,13.5,210.6,1371.159,,
01/08/06,17:30,148.4,13.5,210.7,1371.158,,
01/08/06,18:00,148.8,13.5,210.3,1371.162,,
01/08/06,18:30,148.5,13.5,210.6,1371.159,,
01/08/06,19:00,148.4,13.5,210.7,1371.158,,
01/08/06,19:30,147.7,13.5,211.4,1371.151,,
01/08/06,20:00,147.4,13.5,211.7,1371.148,,
01/08/06,20:30,147.8,13.5,211.3,1371.152,,
01/08/06,21:00,147.6,13.5,211.5,1371.150,,
01/08/06,21:30,147.6,13.5,211.5,1371.150,,
01/08/06,22:00,147.2,13.5,211.9,1371.146,,
01/08/06,22:30,147.2,13.5,211.9,1371.146,,
01/08/06,23:00,147.0,13.5,212.1,1371.144,,
01/08/06,23:30,146.8,13.5,212.3,1371.142,,
01/09/06,0:00,147.0,13.5,212.1,1371.144,,
01/09/06,0:30,146.0,13.5,213.1,1371.134,,
01/09/06,1:00,146.9,13.5,212.2,1371.143,,
01/09/06,1:30,146.1,13.5,213.0,1371.135,,
01/09/06,2:00,145.7,13.5,213.4,1371.131,,
01/09/06,2:30,145.7,13.5,213.4,1371.131,,
01/09/06,3:00,145.8,13.5,213.3,1371.132,,
01/09/06,3:30,145.8,13.5,213.3,1371.132,,
01/09/06,4:00,145.6,13.5,213.5,1371.130,,
01/09/06,4:30,146.4,13.5,212.7,1371.138,,
01/09/06,5:00,148.0,13.4,211.1,1371.154,,
01/09/06,5:30,146.7,13.5,212.4,1371.141,,
01/09/06,6:00,147.2,13.5,211.9,1371.146,,
01/09/06,6:30,146.4,13.5,212.7,1371.138,,
01/09/06,7:00,147.6,13.5,211.5,1371.150,,
01/09/06,7:30,146.5,13.5,212.6,1371.139,,
01/09/06,8:00,146.2,13.5,212.9,1371.136,,
01/09/06,8:30,146.3,13.5,212.8,1371.137,,
01/09/06,9:00,146.1,13.5,213.0,1371.135,,
01/09/06,9:30,146.0,13.5,213.1,1371.134,,
01/09/06,10:00,145.7,13.5,213.4,1371.131,,
01/09/06,10:30,145.8,13.5,213.3,1371.132,,
01/09/06,11:00,146.1,13.5,213.0,1371.135,,
01/09/06,11:30,146.1,13.5,213.0,1371.135,,
01/09/06,12:00,146.8,13.5,212.3,1371.142,,
01/09/06,12:30,147.1,13.5,212.0,1371.145,,
01/09/06,13:00,146.8,13.5,212.3,1371.142,,
01/09/06,13:30,147.1,13.5,212.0,1371.145,,
01/09/06,14:00,146.9,13.5,212.2,1371.143,,
01/09/06,14:30,147.0,13.5,212.1,1371.144,,
01/09/06,15:00,147.3,13.4,211.8,1371.147,,
01/09/06,15:30,146.9,13.5,212.2,1371.143,,
01/09/06,16:00,147.1,13.5,212.0,1371.145,,
01/09/06,16:30,147.2,13.4,211.9,1371.146,,
01/09/06,17:00,147.7,13.4,211.4,1371.151,,
01/09/06,17:30,147.1,13.4,212.0,1371.145,,
01/09/06,18:00,147.0,13.5,212.1,1371.144,,
01/09/06,18:30,146.8,13.4,212.3,1371.142,,
01/09/06,19:00,146.2,13.5,212.9,1371.136,,
01/09/06,19:30,145.7,13.5,213.4,1371.131,,
01/09/06,20:00,145.1,13.4,214.0,1371.125,,
01/09/06,20:30,145.0,13.4,214.1,1371.124,,
01/09/06,21:00,144.8,13.4,214.3,1371.122,,
01/09/06,21:30,144.9,13.5,214.2,1371.123,,
01/09/06,22:00,144.5,13.4,214.6,1371.119,,
01/09/06,22:30,144.3,13.4,214.8,1371.117,,
01/09/06,23:00,143.7,13.4,215.4,1371.111,,
01/09/06,23:30,143.9,13.4,215.2,1371.113,,
01/10/06,0:00,143.5,13.4,215.6,1371.109,,
01/10/06,0:30,143.4,13.4,215.7,1371.108,,
01/10/06,1:00,143.3,13.4,215.8,1371.107,,
01/10/06,1:30,143.5,13.4,215.6,1371.109,,
01/10/06,2:00,144.0,13.4,215.1,1371.114,,
01/10/06,2:30,144.2,13.4,214.9,1371.116,,
01/10/06,3:00,143.8,13.4,215.3,1371.112,,
01/10/06,3:30,143.9,13.4,215.2,1371.113,,
01/10/06,4:00,143.8,13.4,215.3,1371.112,,
01/10/06,4:30,143.4,13.4,215.7,1371.108,,
01/10/06,5:00,144.5,13.4,214.6,1371.119,,
01/10/06,5:30,144.6,13.4,214.5,1371.120,,
01/10/06,6:00,144.1,13.4,215.0,1371.115,,
01/10/06,6:30,143.7,13.4,215.4,1371.111,,
01/10/06,7:00,143.5,13.4,215.6,1371.109,,
01/10/06,7:30,143.4,13.4,215.7,1371.108,,
01/10/06,8:00,143.6,13.4,215.5,1371.110,,
01/10/06,8:30,143.1,13.4,216.0,1371.105,,
01/10/06,9:00,143.8,13.4,215.3,1371.112,,
01/10/06,9:30,144.0,13.4,215.1,1371.114,,
01/10/06,10:00,145.1,13.4,214.0,1371.125,,
01/10/06,10:30,146.2,13.4,212.9,1371.136,,
01/10/06,11:00,147.1,13.4,212.0,1371.145,,
01/10/06,11:30,147.2,13.4,211.9,1371.146,,
01/10/06,12:00,147.6,13.4,211.5,1371.150,,
01/10/06,12:30,149.0,13.4,210.1,1371.164,,
01/10/06,13:00,147.9,13.4,211.2,1371.153,,
01/10/06,13:30,148.5,13.4,210.6,1371.159,,
01/10/06,14:00,148.8,13.4,210.3,1371.162,,
01/10/06,14:30,148.9,13.4,210.2,1371.163,,
01/10/06,15:00,148.4,13.4,210.7,1371.158,,
01/10/06,15:30,148.5,13.4,210.6,1371.159,,
01/10/06,16:00,148.2,13.4,210.9,1371.156,,
01/10/06,16:30,148.4,13.4,210.7,1371.158,,
01/10/06,17:00,147.9,13.4,211.2,1371.153,,
01/10/06,17:30,147.3,13.4,211.8,1371.147,,
01/10/06,18:00,147.4,13.4,211.7,1371.148,,
01/10/06,18:30,147.0,13.4,212.1,1371.144,,
01/10/06,19:00,147.1,13.4,212.0,1371.145,,
01/10/06,19:30,147.1,13.4,212.0,1371.145,,
01/10/06,20:00,146.7,13.4,212.4,1371.141,,
01/10/06,20:30,145.3,13.4,213.8,1371.127,,
01/10/06,21:00,145.5,13.4,213.6,1371.129,,
01/10/06,21:30,145.2,13.4,213.9,1371.126,,
01/10/06,22:00,145.3,13.4,213.8,1371.127,,
01/10/06,22:30,145.1,13.4,214.0,1371.125,,
01/10/06,23:00,145.3,13.4,213.8,1371.127,,
01/10/06,23:30,145.2,13.4,213.9,1371.126,,
01/11/06,0:00,144.6,13.4,214.5,1371.120,,
01/11/06,0:30,145.1,13.4,214.0,1371.125,,
01/11/06,1:00,145.7,13.4,213.4,1371.131,,
01/11/06,1:30,144.9,13.4,214.2,1371.123,,
01/11/06,2:00,145.0,13.4,214.1,1371.124,,
01/11/06,2:30,144.7,13.4,214.4,1371.121,,
01/11/06,3:00,144.2,13.4,214.9,1371.116,,
01/11/06,3:30,144.2,13.4,214.9,1371.116,,
01/11/06,4:00,144.1,13.4,215.0,1371.115,,
01/11/06,4:30,144.4,13.4,214.7,1371.118,,
01/11/06,5:00,144.1,13.4,215.0,1371.115,,
01/11/06,5:30,144.1,13.4,215.0,1371.115,,
01/11/06,6:00,144.2,13.4,214.9,1371.116,,
01/11/06,6:30,144.3,13.4,214.8,1371.117,,
01/11/06,7:00,143.8,13.4,215.3,1371.112,,
01/11/06,7:30,143.8,13.4,215.3,1371.112,,
01/11/06,8:00,143.8,13.4,215.3,1371.112,,
01/11/06,8:30,143.7,13.4,215.4,1371.111,,
01/11/06,9:00,143.8,13.4,215.3,1371.112,,
01/11/06,9:30,143.6,13.4,215.5,1371.110,,
01/11/06,10:00,145.7,13.4,213.4,1371.131,,
01/11/06,10:30,146.5,13.4,212.6,1371.139,,
01/11/06,11:00,146.6,13.4,212.5,1371.140,,
01/11/06,11:30,147.4,13.4,211.7,1371.148,,
01/11/06,12:00,147.6,13.4,211.5,1371.150,,
01/11/06,12:30,148.3,13.4,210.8,1371.157,,
01/11/06,13:00,148.0,13.4,211.1,1371.154,,
01/11/06,13:30,148.5,13.4,210.6,1371.159,,
01/11/06,14:00,149.0,13.4,210.1,1371.164,,
01/11/06,14:30,148.0,13.4,211.1,1371.154,,
01/11/06,15:00,147.9,13.4,211.2,1371.153,,
01/11/06,15:30,148.2,13.4,210.9,1371.156,,
01/11/06,16:00,149.3,13.4,209.8,1371.167,,
01/11/06,16:30,149.4,13.4,209.7,1371.168,,
01/11/06,17:00,148.9,13.4,210.2,1371.163,,
01/11/06,17:30,148.5,13.4,210.6,1371.159,,
01/11/06,18:00,147.7,13.4,211.4,1371.151,,
01/11/06,18:30,147.7,13.4,211.4,1371.151,,
01/11/06,19:00,147.9,13.4,211.2,1371.153,,
01/11/06,19:30,147.7,13.4,211.4,1371.151,,
01/11/06,20:00,147.8,13.4,211.3,1371.152,,
01/11/06,20:30,147.3,13.4,211.8,1371.147,,
01/11/06,21:00,146.9,13.4,212.2,1371.143,,
01/11/06,21:30,146.2,13.4,212.9,1371.136,,
01/11/06,22:00,146.1,13.4,213.0,1371.135,,
01/11/06,22:30,145.9,13.4,213.2,1371.133,,
01/11/06,23:00,145.1,13.4,214.0,1371.125,,
01/11/06,23:30,145.0,13.4,214.1,1371.124,,
01/12/06,0:00,145.1,13.4,214.0,1371.125,,
01/12/06,0:30,145.4,13.4,213.7,1371.128,,
01/12/06,1:00,146.0,13.4,213.1,1371.134,,
01/12/06,1:30,145.1,13.4,214.0,1371.125,,
01/12/06,2:00,145.4,13.4,213.7,1371.128,,
01/12/06,2:30,145.2,13.4,213.9,1371.126,,
01/12/06,3:00,145.0,13.4,214.1,1371.124,,
01/12/06,3:30,145.7,13.4,213.4,1371.131,,
01/12/06,4:00,144.8,13.4,214.3,1371.122,,
01/12/06,4:30,145.7,13.4,213.4,1371.131,,
01/12/06,5:00,145.4,13.4,213.7,1371.128,,